Probability
0 0 0 0 0 0 0 0 0 0 0 0 0 0 0 0 0 0 0 0 0 0 0 0 0 0 0 0 0 0 0 0 0 0 0 0 0 0 0 0 0 0 0 0
0 0 0 0 0 0 0 0 0 0 0 0 0 0 0 0 0 0 0 0 0 0 0 0 0 0 0 0 0 0 0 0 0 0 0 0 0 0 0 0 0 0 0 0
0 0 0 0 0 0 0 0 0 0 0 0 0 0 0 0 0 0 0 0 0 0 0 0 0 0 0 0 0 0 0 0 0 0 0 0 0 0 0 0 0 0 0 0
0 0 0 0 0 0 0 0 0 0 0 0 0 0 0 0 0 0 0 0 0 0 0 0 0 0 0 0 0 0 0 0 0 0 0 0 0 0 0 0 0 0 0 0
0 0 0 0 0 0 0 0 0 0 0 0 0 0 0 0 0 0 0 0 0 0 0 0 0 0 0 0 0 0 0 0 0 0 0 0 0 0 0 0 0 0 0 0
0 0 0 0 0 0 0 0 0 0 0 0 0 0 0 0 0 0 0 0 0 0 0 0 0 0 0 0 0 0 0 0 0 0 0 0 0 0 0 0 0 0 0 0
0 0 0 0 0 0 0 0 0 0 0 0 0 0 0 0 0 0 0 0 0 0 0 0 0 0 0 0 0 0 0 0 0 0 0 0 0 0 0 0 0 0 0 0
0 0 0 0 0 0 0 0 0 0 0 0 0 0 0 0 0 0 0 0 0 0 0 0 0 0 0 0 0 0 0 0 0 0 0 0 0 0 0 0 0 0 0 0
0 0 0 0 0 0 0 0 0 0 0 0 0 0 0 0 0 0 0 0 0 0 0 0 0 0 0 0 0 0 0 0 0 0 0 0 0 0 0 0 0 0 0 0
0 0 0 0 0 0 0 0 0 0 0 0 0 0 0 0 0 0 0 0 0 0 0 0 0 0 0 0 0 0 0 0 0 0 0 0 0 0 0 0 0 0 0 0
0 0 0 0 0 0 0 0 0 0 0 0 0 0 0 0 0 0 0 0 0 0 0 0 0 0 0 0 0 0 0 0 0 0 0 0 0 0 0 0 0 0 0 0
0 0 0 0 0 0 0 0 0 0 0 0 0 0 0 0 0 0 0 0 0 0 0 0 0 0 0 0 0 0 0 0 0 0 0 0 0 0 0 0 0 0 0 0
0 0 0 0 0 0 0 0 0 0 0 0 0 0 0 0 0 0 0 0 0 0 0 0 0 0 0 0 0 0 0 0 0 0 0 0 0 0 0 0 0 0 0 0
0 0 0 0 0 0 0 0 0 0 0 0 0 0 0 0 0 0 0 0 0 0 0 0 0 0 0 0 0 0 0 0 0 0 0 0 0 0 0 0 0 0 0 0
0 0 0 0 0 0 0 0 0 0 0 0 0 0 0 0 0 0 0 0 0 0 0 0 0 0 0 0 0 0 0 0 0 0 0 0 0 0 0 0 0 0 0 0
0 0 0 0 0 0 0 0 0 0 0 0 0 0 0 0 0 0 0 0 0 0 0 0 0 0 0 0 0 0 0 0 0 0 0 0 0 0 0 0 0 0 0 0
0 0 0 0 0 0 0 0 0 0 0 0 0 0 0 0 0 0 0 0 0 0 0 0 0 0 0 0 0 0 0 0 0 0 0 0 0 0 0 0 0 0 0 0
0 0 0 0 0 0 0 0 0 0 0 0 0 0 0 0 0 0 0 0 0 0 0 0 0 0 0 0 0 0 0 0 0 0 0 0 0 0 0 0 0 0 0 0
0 0 0 0 0 0 0 0 0 0 0 0 0 0 0 0 0 0 0 0 0 0 0 0 0 0 0 0 0 0 0 0 0 0 0 0 0 0 0 0 0 0 0 0
0 0 0 0 0 0 0 0 0 0 0 0 0 0 0 0 0 0 0 0 0 0 0 0 0 0 0 0 0 0 0 0 0 0 0 0 0 0 0 0 0 0 0 0
0 0 0 0 0 0 0 0 0 0 0 0 0 0 0 0 0 0 0 0 0 0 0 0 0 0 0 0 0 0 0 0 0 0 0 0 0 0 0 0 0 0 0 0
0 0 0 0 0 0 0 0 0 0 0 0 0 0 0 0 0 0 0 0 0 0 0 0 0 0 0 0 0 0 0 0 0 0 0 0 0 0 0 0 0 0 0 0
0 0 0 0 0 0 0 0 0 0 0 0 0 0 0 0 0 0 0 0 0 0 0 0 0 0 0 0 0 0 0 0 0 0 0 0 0 0 0 0 0 0 0 0
0 0 0 0 0 0 0 0 0 0 0 0 0 0 0 0 0 0 0 0 0 0 0 0 0 0 0 0 0 0 0 0 0 0 0 0 0 0 0 0 0 0 0 0
0 0 0 0 0 0 0 0 0 0 0 0 0 0 0 0 0 0 0 0 0 0 0 0 0 0 0 0 0 0 0 0 0 0 0 0 0 0 0 0 0 0 0 0
0 0 0 0 0 0 0 0 0 0 0 0 0 0 0 0 0 0 0 0 0 0 0 0 0 0 0 0 0 0 0 0 0 0 0 0 0 0 0 0 0 0 0 0
0 0 0 0 0 0 0 0 0 0 0 0 0 0 0 0 0 0 0 0 0 0 0 0 0 0 0 0 0 0 0 0 0 0 0 0 0 0 0 0 0 0 0 0
Height
5561 5558 5555 5553 5551 5548 5545 5543 5540 5540 5538 5539 5536 5534 5532 5530 5528 5527 5526 5525 5524 5522 5521 5519 5518 5517 5516 5515 5514 5513 5513 5512 5512 5512 5512 5512 5512 5512 5513 5513 5513 5514 5515 5516
5552 5549 5546 5543 5542 5539 5536 5533 5530 5528 5528 5528 5525 5523 5521 5519 5518 5516 5515 5513 5512 5510 5509 5507 5506 5505 5503 5502 5501 5500 5499 5498 5497 5497 5497 5497 5497 5497 5497 5497 5497 5498 5499 5500
5542 5540 5535 5534 5534 5530 5527 5524 5521 5518 5519 5516 5514 5512 5510 5508 5506 5505 5503 5502 5500 5499 5497 5496 5494 5492 5491 5490 5488 5487 5486 5484 5483 5483 5482 5482 5482 5482 5481 5481 5482 5482 5483 5484
5531 5529 5526 5528 5523 5520 5516 5515 5512 5508 5507 5505 5503 5501 5499 5497 5495 5494 5492 5491 5489 5487 5486 5484 5482 5481 5479 5477 5475 5474 5473 5471 5470 5468 5468 5467 5467 5467 5467 5466 5467 5467 5468 5469
5521 5517 5515 5516 5513 5509 5506 5504 5502 5499 5497 5494 5492 5491 5490 5487 5485 5483 5482 5480 5478 5476 5475 5473 5471 5469 5467 5465 5463 5462 5460 5458 5456 5455 5454 5453 5453 5453 5453 5453 5453 5453 5454 5455
5512 5507 5505 5507 5503 5498 5496 5494 5492 5489 5487 5485 5482 5481 5480 5477 5474 5472 5471 5469 5467 5466 5464 5462 5460 5457 5455 5453 5451 5449 5447 5446 5444 5442 5440 5440 5439 5439 5439 5439 5439 5439 5440 5440
5503 5498 5496 5495 5492 5489 5487 5486 5482 5478 5476 5474 5472 5470 5469 5466 5464 5462 5460 5458 5456 5454 5452 5450 5448 5446 5444 5442 5439 5437 5435 5433 5431 5429 5427 5426 5426 5425 5425 5425 5426 5426 5426 5426
5494 5490 5490 5486 5482 5480 5477 5474 5471 5468 5466 5464 5462 5459 5457 5455 5453 5451 5449 5447 5445 5443 5441 5439 5437 5435 5432 5430 5427 5425 5423 5421 5419 5417 5415 5414 5413 5412 5411 5411 5412 5411 5412 5412
5486 5485 5480 5476 5473 5470 5467 5464 5461 5458 5456 5454 5452 5449 5447 5445 5443 5440 5438 5436 5434 5432 5430 5427 5425 5422 5420 5417 5415 5412 5410 5408 5406 5404 5402 5401 5400 5399 5398 5398 5398 5397 5397 5398
5476 5473 5470 5466 5462 5460 5457 5453 5450 5448 5446 5444 5442 5439 5437 5435 5432 5430 5427 5425 5423 5420 5418 5415 5413 5410 5407 5404 5402 5399 5397 5395 5393 5391 5390 5388 5387 5386 5385 5384 5384 5383 5383 5383
5465 5463 5459 5456 5452 5449 5447 5443 5441 5438 5436 5433 5431 5429 5427 5424 5421 5419 5416 5413 5411 5409 5406 5403 5401 5398 5395 5392 5389 5387 5384 5382 5380 5379 5377 5376 5375 5373 5372 5371 5369 5369 5369 5368
5456 5452 5449 5446 5443 5439 5437 5434 5431 5428 5426 5423 5420 5418 5415 5413 5410 5407 5405 5402 5399 5397 5394 5391 5388 5385 5382 5379 5376 5374 5372 5370 5368 5366 5365 5363 5362 5361 5359 5357 5356 5355 5354 5354
5445 5441 5438 5435 5432 5429 5426 5424 5421 5418 5416 5413 5410 5407 5405 5402 5399 5396 5393 5390 5388 5385 5382 5379 5376 5373 5370 5367 5364 5361 5359 5357 5355 5354 5352 5351 5349 5348 5347 5346 5344 5342 5341 5340
5433 5430 5428 5425 5422 5419 5416 5414 5411 5408 5405 5403 5400 5397 5394 5391 5388 5385 5382 5379 5376 5373 5370 5366 5363 5360 5357 5354 5352 5349 5347 5345 5343 5341 5339 5338 5336 5335 5334 5333 5331 5330 5328 5326
5423 5420 5417 5414 5412 5409 5406 5404 5401 5398 5395 5392 5389 5386 5383 5380 5377 5374 5370 5367 5364 5361 5358 5354 5351 5348 5345 5342 5340 5337 5335 5333 5331 5329 5327 5325 5323 5322 5320 5319 5317 5316 5315 5313
5413 5410 5407 5404 5401 5399 5396 5393 5391 5388 5385 5382 5379 5375 5372 5369 5366 5363 5359 5356 5353 5349 5346 5343 5339 5336 5333 5330 5328 5325 5323 5321 5319 5317 5315 5313 5311 5309 5307 5306 5304 5303 5301 5300
5402 5399 5396 5394 5391 5388 5386 5383 5380 5377 5374 5371 5368 5364 5361 5358 5355 5351 5348 5344 5341 5338 5334 5331 5328 5324 5321 5319 5316 5314 5311 5308 5306 5304 5302 5300 5298 5296 5294 5293 5291 5289 5288 5286
5392 5389 5386 5383 5380 5378 5375 5372 5369 5366 5363 5360 5356 5353 5350 5347 5343 5340 5336 5333 5329 5326 5322 5319 5316 5312 5309 5306 5304 5301 5299 5296 5294 5292 5289 5287 5285 5283 5281 5279 5277 5276 5275 5273
5382 5379 5376 5373 5370 5367 5364 5361 5358 5354 5351 5348 5345 5341 5338 5335 5331 5328 5325 5321 5317 5314 5310 5307 5303 5300 5297 5294 5292 5289 5286 5284 5281 5279 5276 5274 5272 5270 5268 5266 5264 5263 5261 5260
5372 5369 5365 5362 5359 5356 5353 5349 5346 5343 5339 5336 5333 5330 5326 5323 5320 5316 5313 5309 5305 5302 5298 5295 5291 5288 5285 5282 5279 5277 5274 5271 5269 5266 5264 5262 5260 5257 5255 5253 5251 5250 5248 5247
5362 5358 5355 5351 5348 5344 5341 5338 5334 5331 5327 5324 5321 5317 5314 5311 5307 5304 5301 5298 5293 5290 5287 5283 5280 5276 5273 5270 5267 5264 5261 5259 5256 5254 5252 5249 5247 5245 5242 5240 5238 5237 5236 5234
5351 5348 5344 5340 5336 5333 5329 5325 5322 5319 5315 5312 5308 5305 5301 5298 5295 5292 5288 5285 5282 5278 5275 5271 5268 5264 5261 5258 5255 5252 5249 5246 5244 5241 5239 5236 5234 5232 5230 5228 5227 5225 5223 5222
5341 5337 5333 5329 5325 5321 5317 5313 5310 5306 5302 5299 5296 5292 5289 5286 5282 5280 5277 5273 5269 5266 5263 5259 5256 5252 5249 5246 5243 5240 5237 5234 5231 5229 5227 5224 5222 5220 5219 5217 5215 5214 5212 5211
5330 5326 5322 5318 5314 5310 5306 5302 5298 5294 5290 5287 5283 5280 5277 5273 5270 5266 5263 5260 5257 5254 5250 5247 5243 5240 5237 5234 5231 5228 5225 5222 5219 5217 5215 5213 5211 5209 5207 5206 5204 5203 5202 5201
5320 5316 5312 5307 5303 5299 5295 5291 5286 5283 5279 5275 5271 5267 5264 5261 5258 5254 5251 5247 5244 5241 5238 5234 5231 5228 5224 5221 5219 5216 5213 5210 5208 5206 5204 5202 5200 5198 5196 5195 5194 5192 5191 5191
5310 5306 5301 5297 5293 5288 5284 5280 5276 5272 5268 5264 5260 5256 5252 5249 5245 5242 5238 5235 5232 5228 5225 5222 5219 5216 5212 5209 5207 5204 5201 5199 5196 5194 5192 5191 5189 5187 5186 5185 5183 5182 5181 5180
5300 5295 5291 5286 5282 5278 5273 5269 5265 5261 5257 5253 5249 5245 5241 5237 5233 5230 5226 5223 5219 5216 5213 5210 5207 5204 5201 5198 5195 5192 5190 5188 5186 5184 5182 5180 5179 5177 5176 5174 5173 5172 5171 5170
Wind_Speed
34 34 34 35 35 35 37 38 39 38 38 36 37 38 38 40 40 40 40 40 40 40 41 41 41 41 41 42 43 44 46 47 48 49 49 49 50 50 51 52 53 55 55 55
35 35 35 36 35 36 37 38 38 38 37 36 37 38 38 39 39 39 39 40 40 40 41 41 41 41 42 42 43 44 45 47 49 50 50 49 49 50 51 52 52 53 54 55
37 37 37 36 34 35 36 36 37 37 36 37 37 38 38 38 38 39 39 40 40 40 40 41 41 42 42 41 42 43 44 45 48 49 49 49 50 49 49 50 50 51 52 53
38 38 38 36 35 35 35 35 35 35 35 35 36 36 36 37 37 37 37 38 38 39 39 39 40 41 41 41 41 42 42 43 45 47 48 49 49 49 48 48 49 49 50 52
38 39 39 36 35 34 34 34 34 35 35 35 36 36 36 37 38 38 38 37 37 38 38 38 39 40 41 41 41 41 42 42 44 45 46 47 48 48 48 47 47 48 49 50
38 39 39 36 35 35 35 35 34 35 36 36 36 36 35 37 37 37 38 37 38 38 38 38 39 39 39 40 41 42 42 43 44 45 46 46 46 46 46 46 47 47 49 49
38 38 38 37 36 36 36 36 36 36 36 36 36 37 37 37 37 37 36 36 37 38 38 38 39 40 40 41 41 42 43 43 43 44 45 45 45 45 45 45 46 47 48 48
37 38 37 37 36 36 36 36 36 36 36 36 36 36 36 36 36 36 36 37 37 38 38 38 39 40 41 42 42 43 43 44 44 44 44 44 44 44 44 44 45 46 47 47
38 37 37 37 37 37 37 37 37 36 36 36 36 36 36 36 36 36 37 37 38 38 39 39 39 40 41 42 43 43 44 44 44 44 44 44 43 44 44 45 45 46 46 46
38 37 37 37 38 38 37 37 36 36 36 35 35 35 35 36 36 37 37 37 37 38 39 40 40 41 42 43 43 43 43 43 43 43 43 43 43 43 44 44 45 45 46 46
38 37 37 37 38 38 37 37 36 36 35 35 36 36 37 37 38 39 39 38 39 40 40 41 41 42 42 43 43 42 42 42 42 42 42 42 42 42 43 43 44 45 45 45
38 37 38 37 38 38 37 36 36 36 35 36 36 37 37 37 38 38 39 39 40 40 41 41 42 42 42 42 42 41 41 41 41 41 41 41 41 41 41 42 43 44 44 44
38 38 38 37 37 37 36 36 36 36 36 36 37 37 37 37 38 39 39 40 40 41 41 42 42 42 42 41 41 41 40 40 40 40 40 40 40 40 40 41 42 43 44 44
37 37 37 37 37 36 35 35 36 36 36 36 37 37 37 38 38 39 39 39 39 40 41 41 41 41 41 41 40 40 40 40 40 40 40 40 40 40 40 41 41 41 43 44
36 36 36 36 36 35 35 35 35 36 36 36 37 37 38 38 38 38 38 38 39 39 39 40 40 40 40 39 39 39 39 39 39 39 39 40 40 40 40 40 41 41 41 42
35 35 35 36 35 35 36 36 36 36 37 37 37 37 38 38 38 38 38 38 39 39 39 39 39 39 39 38 38 39 39 39 39 39 39 39 40 40 40 41 41 40 40 40
35 35 35 35 36 36 36 36 37 37 37 37 37 38 38 38 38 38 39 39 39 40 40 40 40 40 39 39 39 39 39 39 39 40 40 40 40 40 40 40 40 40 40 40
35 35 36 36 36 37 37 37 37 38 38 38 38 38 38 39 39 38 38 39 39 40 40 40 40 40 40 39 39 39 39 39 39 40 40 40 40 40 40 40 40 39 39 40
35 35 35 35 36 37 37 37 38 38 38 38 38 38 38 38 39 39 39 39 39 39 39 40 39 39 39 39 38 38 38 39 39 39 39 39 40 40 40 40 39 39 39 39
35 35 35 36 36 36 37 38 38 38 38 39 39 39 39 40 40 40 40 40 40 39 39 39 38 38 37 38 38 38 38 38 38 38 38 38 38 39 39 39 39 38 38 38
36 36 36 37 37 37 37 38 38 38 39 39 39 40 40 40 40 40 40 39 39 39 38 38 38 37 37 37 37 37 37 37 37 37 37 38 38 38 37 37 37 37 37 36
37 37 37 37 38 38 38 39 40 40 40 40 40 40 39 39 39 39 39 38 39 39 38 38 38 38 37 37 37 37 37 37 37 37 37 37 37 36 36 36 36 35 35 35
37 37 38 38 38 38 39 39 40 40 40 40 40 40 39 39 39 39 39 39 39 39 39 38 38 38 38 37 37 37 37 37 36 36 35 35 35 34 34 33 33 33 33 33
37 37 37 38 38 38 38 38 39 39 39 39 40 40 40 40 40 40 40 39 40 39 39 39 39 39 38 37 37 37 37 36 35 34 34 33 33 32 32 32 31 31 32 31
37 37 37 37 38 38 38 38 38 38 38 38 39 39 39 39 40 40 40 40 40 39 39 39 38 38 37 36 36 36 36 35 34 33 33 32 32 31 31 30 30 30 30 30
37 38 38 38 38 38 38 38 37 37 37 37 38 38 38 38 38 39 39 39 39 39 38 38 37 37 36 36 35 35 34 33 33 32 32 31 30 30 29 29 29 29 29 29
37 38 38 38 38 38 37 37 37 37 37 37 37 37 37 37 38 38 38 38 38 37 37 36 35 35 35 34 34 33 32 31 31 30 30 29 29 29 28 28 28 29 29 28
Wind_Direction
294 292 291 290 288 285 283 283 283 283 282 282 280 279 278 277 277 278 278 277 277 276 274 273 272 271 270 271 271 270 269 268 267 267 266 266 265 264 263 263 262 261 260 259
292 292 291 290 289 287 285 284 285 284 282 281 280 279 279 278 278 278 278 277 277 277 276 275 273 272 272 272 272 272 271 270 269 268 268 267 266 265 264 263 263 261 260 259
293 292 292 292 293 290 287 285 284 283 284 283 282 281 279 279 279 279 279 278 278 278 277 277 276 275 274 274 274 274 274 273 271 270 268 267 267 266 265 264 263 261 261 259
294 293 292 296 294 292 290 287 286 284 284 283 283 282 281 280 279 279 280 280 280 279 277 277 278 277 276 275 275 275 274 274 273 272 270 269 269 267 267 266 264 263 262 260
295 295 295 296 296 295 292 289 286 285 284 284 284 284 283 282 281 280 280 280 280 280 280 280 280 280 278 276 275 275 275 275 276 274 272 270 269 268 267 266 265 265 264 262
296 295 297 298 296 295 292 290 288 286 285 284 284 284 284 283 283 281 281 280 281 281 282 282 282 282 280 279 277 277 277 277 277 275 273 271 270 269 267 266 266 266 265 264
295 295 295 296 296 295 293 292 290 288 286 285 285 286 285 285 284 282 281 282 282 282 282 283 283 283 282 281 280 279 279 278 278 277 275 273 271 269 268 268 267 266 265 265
295 295 296 295 295 295 293 292 290 289 287 287 286 286 285 284 283 282 283 283 283 283 283 284 284 283 283 283 282 282 280 280 279 278 276 274 272 270 269 269 268 267 266 265
294 294 294 293 293 293 292 291 289 289 288 287 286 286 285 285 285 284 284 283 283 283 283 284 284 284 284 284 284 283 282 280 279 278 277 275 273 272 270 270 270 269 267 267
293 293 292 291 291 291 291 291 290 288 288 287 286 286 285 285 286 286 286 285 285 285 285 285 285 285 284 284 284 284 283 281 280 278 277 276 274 273 272 272 272 271 269 269
292 292 291 291 290 290 290 290 290 289 288 287 286 285 285 286 286 287 286 286 286 286 286 286 286 285 285 285 285 285 283 281 280 278 277 276 275 275 274 274 274 272 271 270
292 291 290 291 291 291 290 289 290 289 288 288 288 287 286 287 288 288 287 286 287 287 288 287 287 286 286 286 285 285 283 282 280 279 278 277 276 276 275 275 274 273 272 272
290 290 289 289 290 291 290 289 289 289 289 289 289 289 288 288 289 289 288 287 287 288 289 288 288 287 286 286 286 285 283 282 281 279 278 277 277 277 276 276 275 275 274 273
290 289 289 289 289 289 289 289 289 289 290 291 291 290 290 290 289 289 289 289 289 289 290 290 289 288 287 286 285 285 283 282 281 281 280 279 278 277 277 276 276 275 275 274
290 289 289 290 290 289 289 289 290 290 291 291 292 292 292 291 290 290 290 290 290 290 291 291 290 289 287 286 285 285 284 283 283 282 281 281 279 278 278 278 277 277 276 275
290 290 290 290 290 289 290 290 291 291 292 292 292 292 293 293 292 291 290 290 291 291 291 291 290 289 288 286 285 285 285 284 283 282 282 282 281 279 278 278 278 277 276 274
291 290 289 289 289 289 290 291 291 291 292 292 291 291 292 292 292 292 292 291 291 291 291 291 290 289 288 287 286 286 285 284 284 283 282 282 282 280 279 278 278 276 275 274
293 291 290 289 289 290 290 290 291 292 292 291 291 291 291 292 292 292 292 293 293 293 292 292 291 289 288 287 287 286 285 285 285 284 283 283 282 281 280 279 278 277 275 274
293 292 291 291 291 291 291 291 291 291 291 291 292 292 292 292 292 292 292 293 294 294 293 293 292 290 289 288 287 286 286 285 285 284 284 283 283 282 281 280 279 278 277 275
295 294 293 293 292 292 292 292 293 292 292 292 292 292 292 292 292 292 293 293 294 294 294 294 293 292 291 289 288 288 287 286 285 285 284 284 284 283 282 281 280 278 277 276
296 295 295 294 293 292 292 293 293 293 293 293 292 292 292 292 292 293 293 293 294 295 295 295 294 293 292 291 290 289 288 287 286 285 285 285 285 284 283 282 280 279 277 276
297 296 296 295 294 293 293 293 293 293 292 292 293 292 292 292 293 293 293 293 294 295 296 295 294 293 292 291 291 291 290 288 287 287 286 286 285 284 283 282 281 280 278 276
299 298 297 296 295 295 295 295 295 294 293 293 292 292 292 293 293 293 293 293 294 295 295 295 294 293 292 292 291 291 290 290 289 288 287 286 285 284 283 282 281 280 279 277
300 300 300 299 298 297 297 296 296 295 295 294 293 293 293 293 293 294 293 293 294 295 295 294 294 294 293 292 291 291 290 290 289 289 288 287 285 284 283 281 280 279 278 276
301 301 301 300 300 299 299 298 298 297 297 296 296 296 295 294 294 294 294 294 294 294 294 294 294 294 294 293 292 291 290 289 288 288 287 287 286 284 283 281 280 279 278 277
301 301 301 301 301 301 300 299 298 298 298 298 298 298 298 297 297 296 296 295 295 294 294 294 294 294 293 293 293 291 290 289 288 288 287 286 286 284 282 280 280 280 279 277
302 302 302 302 302 301 301 300 299 299 299 300 300 300 300 299 299 299 298 298 297 296 295 295 294 294 294 294 293 292 290 289 289 288 287 286 285 284 282 280 280 280 280 278